Regional Weather Roundup
Issued by NWS Charleston, SC

Current Version | Previous Version | Graphics & Text | Print | Product List | Glossary Off
Versions: 1 2 3 4 5 6 7 8 9 10 11 12 13 14 15 16 17 18 19 20 21 22 23 24 25 26 27 28 29 30 31 32 33 34 35 36 37 38 39 40 41 42 43 44 45 46 47 48 49 50

000
ASUS42 KCHS 231125
RWRCHS

REGIONAL WEATHER ROUNDUP
NATIONAL WEATHER SERVICE CHARLESTON SC
700 AM EDT SAT AUG 23 2014

NOTE: "FAIR" INDICATES FEW OR NO CLOUDS BELOW 12,000 FEET WITH NO
SIGNIFICANT WEATHER AND/OR OBSTRUCTIONS TO VISIBILITY.

NOT ALL STATIONS ARE QUALITY CONTROLLED BY THE NATIONAL
WEATHER SERVICE. USE DATA WITH CAUTION...ESPECIALLY
DEWPOINT OBSERVATIONS.

SCZ027-030-031-034>040-042>050-231200-
...SOUTH CAROLINA...

CITY           SKY/WX    TMP DP  RH WIND       PRES   REMARKS
N CHARLESTON   PTCLDY    81  75  82 W3        29.91R
WATERFRONT PRK   N/A     81 N/A N/A W6          N/A
FORT JOHNSON   NOT AVBL
MOUNT PLEASANT FAIR      81  79  94 CALM      29.90S FOG
JOHNS ISLAND   SUNNY     81  79  94 CALM      29.91R
PINOPOLIS        N/A     82  75  78 SW8       29.81F
MONCKS CORNER    N/A     77  77 100 CALM      29.91R FOG
SUMMERVILLE    FAIR      77  77 100 CALM      29.92R FOG
BEAUFORT MCAS  CLEAR     78  74  87 CALM      29.92R
BEAUFORT ARPT  FAIR      77  77 100 CALM      29.91S
HILTON HEAD IS CLEAR     81  73  78 W5        29.93R
GEORGETOWN     NOT AVBL
WALTERBORO     SUNNY     77 N/A N/A CALM      29.92R
ORANGEBURG     CLEAR     75  69  81 N3        29.92R
BARNWELL       FAIR      73  72  94 CALM      29.94R
AIKEN          FAIR      73  73 100 W6        29.98R
MANNING        FAIR      75 N/A N/A CALM      29.91R
KINGSTREE      NOT AVBL
COLUMBIA       PTCLDY    74  70  87 SW5       29.92R
SUMTER         CLEAR     75  73  93 NE3       29.91R
FLORENCE       CLEAR     76  72  87 CALM      29.91R
MYRTLE BEACH   PTCLDY    81  75  83 NW5       29.91R FOG
N MYRTLE BEACH CLEAR     78  76  93 CALM      29.90R FOG

$$

GAZ063-065-086>088-099>101-113>116-118-119-134-136>141-150-231200-
...GEORGIA...

CITY           SKY/WX    TMP DP  RH WIND       PRES   REMARKS
SAVANNAH ARPT  PTCLDY    78  72  81 CALM      29.93S
HUNTER AAF     CLEAR     77  74  89 W2        29.91S
FORT STEWART   CLEAR     76  73  91 W2        29.92S
STATESBORO     NOT AVBL
SYLVANIA       SUNNY     74  73  99 CALM      29.95R
CLAXTON        FAIR     N/A N/A N/A CALM      29.95R HAZE
THOMSON        CLEAR     72  72 100 CALM      30.01R
AUGUSTA-BUSH   CLEAR     75  70  84 CALM      29.93R
AUGUSTA-DANIEL CLEAR     79  70  74 NW8       29.95R
SWAINSBORO     FAIR      77  77 100 CALM      29.97R
VIDALIA          N/A     77  72  83 NW3       29.96S
ALMA           PTCLDY    74  72  93 CALM      29.95S
WAYCROSS       CLEAR     78  75  91 CALM      29.96S
JESUP            N/A     77  73  88 W3        29.95S FOG
BRUNSWICK      CLEAR     79  72  78 W5        29.95S
SAINT SIMONS   CLEAR     79  74  84 W6        29.94R

$$

SCZ027-028-034-036>038-045-046-048>050-GAZ119-141-231200-
...LAKE AND SUPPLEMENTAL COASTAL OBSERVATIONS...

STATION/POSITION TIME  TEMP    WIND        PRES    WAVE   SWELL
                       AIR SEA DIR/SP/G            HT/PER HT/PER/DIR
                 (UTC) (F)     (DEG/KT/KT) (MB)    (FT/S) (FT/S/D)
UPR LAKE MARION  NOT AVBL
WINYAH BAY       1100   80     290/  3     1012.0S
LAKE MURRAY      1100   77     310/  1/  3 1012.9R
ACE BASIN NERRS  1100   78        CALM     1013.0S
FORT PULASKI     1100   82     290/  9/ 10 1013.5R
SAPELO ISLAND    1100   80     260/  4     1014.0S

$$

ANZ835-935-AMZ111-154-330-350-352-354-374-450-454-472-231200-
...C-MAN AND BUOY OBSERVATIONS...

STATION/POSITION TIME  TEMP    WIND        PRES    WAVE   SWELL
                       AIR SEA DIR/SP/G            HT/PER HT/PER/DIR
                 (UTC) (F)     (DEG/KT/KT) (MB)    (FT/S) (FT/S/D)
FOLLY BEACH CMAN 1100   82     250/  4/  7 1013.0R
BUOY 41004       1100   85 84  230/ 12/ 14 1011.8R   2/ 4   2/ 7
BUOY 41008       1100   84 85  250/ 10/ 12 1013.2R   2/ 3   2/ 90/10
5E ST. MARYS GA  1100      83                N/A     1/ 9
FRYING PAN BUOY  NOT AVBL
BUOY 41025       1100   78     350/  8/ 10 1012.8R   2/ 8   2/ 50/ 8
CAPE LOOKOUT NC  1100   80      70/  6/  7 1013.1R
BUOY 41002       0957   82 82  260/ 14/ 16 1014.1R   3/ 4   2/150/ 7
BUOY 41010       1100   84 86  220/  6/  6 1015.1R   2/ 6   2/140/ 6
BUOY 41012       NOT AVBL
ST AUGUSTINE FL  1100   77     260/  7/  9 1015.2R
CAPERS NEARSHORE 1000   85     250/ 12/ 14   N/A
FRIPP NEARSHORE  NOT AVBL


$$



USA.gov is the U.S. government's official web portal to all federal, state and local government web resources and services.